RFF9986 HL59-DFFD

Flight info

Callsign RFF9986
Flight time N/A
Altitude 34000
Route K0850F330 DCT BNA B727 IMN UB727 TMS UG855 NY UG854 BULSA
Aircraft T154/M-VGD/A

Departure

Time 2026-04-28 23:01
Airport Al Khadim Airport (HL59)

Arrival

Time N/A
Airport Ouagadougou Thomas Sankara International Airport (DFFD)
Time Latitude Longitude Altitude Speed Heading
2026-04-28 22:38 31.99905 21.19997 768 ft 0 kts 150°
2026-04-28 22:52 31.99894 21.20004 768 ft 4 kts 152°
2026-04-28 22:52 31.99851 21.20031 767 ft 7 kts 152°
2026-04-28 22:52 31.99806 21.20031 766 ft 6 kts 216°
2026-04-28 22:53 31.99784 21.19989 766 ft 5 kts 242°
2026-04-28 22:53 31.99767 21.19951 765 ft 4 kts 242°
2026-04-28 22:53 31.99753 21.19921 765 ft 3 kts 242°
2026-04-28 22:53 31.99741 21.19894 765 ft 5 kts 233°
2026-04-28 22:54 31.99703 21.19888 764 ft 6 kts 165°
2026-04-28 22:54 31.99663 21.19882 763 ft 5 kts 211°
2026-04-28 22:54 31.99631 21.19828 763 ft 10 kts 242°
2026-04-28 22:54 31.99599 21.19758 762 ft 9 kts 235°
2026-04-28 22:55 31.99546 21.19744 761 ft 8 kts 156°
2026-04-28 22:55 31.99496 21.19777 760 ft 8 kts 150°
2026-04-28 22:55 31.99440 21.19815 759 ft 13 kts 150°
2026-04-28 22:55 31.99319 21.19898 757 ft 24 kts 149°
2026-04-28 22:56 31.99183 21.19988 755 ft 20 kts 150°
2026-04-28 22:56 31.99128 21.20025 754 ft 8 kts 150°
2026-04-28 22:56 31.99081 21.20057 754 ft 7 kts 150°
2026-04-28 22:56 31.99056 21.20074 753 ft 9 kts 150°
2026-04-28 22:57 31.99022 21.20096 753 ft 11 kts 150°
2026-04-28 22:57 31.98929 21.20160 753 ft 18 kts 149°
2026-04-28 22:57 31.98795 21.20251 751 ft 24 kts 150°
2026-04-28 22:57 31.98656 21.20345 748 ft 15 kts 150°
2026-04-28 22:58 31.98573 21.20360 747 ft 12 kts 204°
2026-04-28 22:58 31.98525 21.20283 745 ft 11 kts 243°
2026-04-28 22:58 31.98490 21.20201 744 ft 10 kts 243°
2026-04-28 22:58 31.98471 21.20129 744 ft 7 kts 268°
2026-04-28 22:59 31.98479 21.20101 744 ft 3 kts 309°
2026-04-28 22:59 31.98495 21.20087 745 ft 1 kts 329°
2026-04-28 22:59 31.98497 21.20086 745 ft 0 kts 329°
2026-04-28 23:00 31.98571 21.20035 746 ft 40 kts 329°
2026-04-28 23:00 31.98998 21.19748 752 ft 102 kts 330°
2026-04-28 23:00 31.99782 21.19223 767 ft 155 kts 330°
2026-04-28 23:00 32.00834 21.18518 999 ft 179 kts 331°
2026-04-28 23:01 32.01863 21.17851 1724 ft 168 kts 332°
2026-04-28 23:01 32.02959 21.17179 1936 ft 192 kts 333°
2026-04-28 23:01 32.03773 21.16687 2218 ft 202 kts 328°